Home   Weather   Wardha   Past weeks

Flag for India Past Weather in Wardha, Maharashtra, India — Yesterday and Last 2 Weeks

Now
86 °F

Scattered clouds.


Feels Like: 83 °F
Forecast: 80 / 104 °F
Wind: 3 mph from Northwest

Location: Nagpur Sonegaon

Current Time: May 1, 2017 at 8:08:11 am

Latest Report: May 1, 2017 at 7:30 am


Visibility: 2 mi

Pressure: 29.86 "Hg

Humidity: 27%

Dew Point: 48 °F

Location of WardhaLocation

Past Weather in Wardha — Graph

°F

Wardha Temperature Yesterday

Maximum temperature yesterday: 106 °F (at 2:30 pm)
Minimum temperature yesterday: 86 °F (at 12:30 am)
Average temperature yesterday: 95 °F

High & Low Weather Summary for the Past Weeks

 TemperatureHumidityPressure
High113 °F (Apr 18, 3:30 pm)33% (Apr 30, 5:00 am)29.86 "Hg (Apr 30, 5:00 am)
Low75 °F (Apr 27, 5:00 am)6% (Apr 16, 2:30 pm)29.56 "Hg (Apr 26, 10:00 pm)
Average96 °F15%29.75 "Hg
* Reported Apr 16 6:30 am — May 1 6:30 am, Wardha, Weather by CustomWeather, © 2017

Note: Actual official high and low records may vary slightly from our data, if they occured in-between our weather recording intervals... More about our weather records

Advertising

Wardha Weather History for the Previous 24 Hours

Scroll right to see more
 ConditionsComfort  
Time TempWeatherWind HumidityBarometerVisibility
6:30 am
Mon, May 1
82 °FScattered clouds.No wind30%29.83 "Hg2 mi
6:00 am82 °FPassing clouds.5 mph28%29.83 "Hg2 mi
5:30 am82 °FPassing clouds.3 mph28%29.80 "Hg2 mi
5:00 am84 °FPassing clouds.No wind27%29.80 "Hg2 mi
4:30 am84 °FPassing clouds.No wind27%29.80 "Hg2 mi
4:00 am86 °FPassing clouds.No wind25%29.80 "Hg2 mi
3:30 am86 °FPassing clouds.7 mph25%29.80 "Hg2 mi
3:00 am88 °FPassing clouds.7 mph24%29.80 "Hg2 mi
2:30 am88 °FPassing clouds.3 mph24%29.80 "Hg2 mi
2:00 am90 °FPassing clouds.5 mph21%29.80 "Hg2 mi
1:30 am90 °FPassing clouds.3 mph22%29.80 "Hg2 mi
1:00 am91 °FPassing clouds.6 mph21%29.80 "Hg2 mi
12:30 am91 °FPassing clouds.3 mph20%29.80 "Hg2 mi
12:00 am91 °FPassing clouds.8 mph20%29.80 "Hg2 mi
11:00 pm
Sun, Apr 30
90 °FPassing clouds.6 mph22%29.80 "Hg2 mi
10:30 pm90 °FPassing clouds.5 mph21%29.80 "Hg2 mi
10:00 pm91 °FPassing clouds.5 mph20%29.80 "Hg2 mi
9:30 pm91 °FPassing clouds.No wind20%29.77 "Hg2 mi
9:00 pm93 °FPassing clouds.3 mph19%29.77 "Hg2 mi
8:30 pm95 °FPassing clouds.2 mph18%29.77 "Hg2 mi
8:00 pm95 °FPassing clouds.5 mph16%29.77 "Hg3 mi
7:30 pm97 °FPassing clouds.8 mph16%29.74 "Hg3 mi
7:00 pm97 °FScattered clouds.8 mph16%29.74 "Hg3 mi
6:30 pm99 °FScattered clouds.10 mph16%29.74 "Hg3 mi
6:00 pm102 °FScattered clouds.12 mph14%29.74 "Hg4 mi
5:30 pm104 °FPassing clouds.8 mph13%29.71 "Hg4 mi
5:00 pm104 °FPassing clouds.6 mph13%29.71 "Hg4 mi
4:30 pm104 °FPassing clouds.8 mph12%29.71 "Hg4 mi
4:00 pm104 °FPassing clouds.10 mph14%29.71 "Hg4 mi
3:30 pm104 °FScattered clouds.6 mph14%29.74 "Hg4 mi
3:00 pm106 °FScattered clouds.9 mph13%29.74 "Hg4 mi
2:30 pm106 °FScattered clouds.7 mph13%29.77 "Hg4 mi
2:00 pm102 °FScattered clouds.6 mph15%29.77 "Hg4 mi
1:30 pm104 °FScattered clouds.10 mph14%29.80 "Hg4 mi
1:00 pm104 °FPassing clouds.10 mph15%29.80 "Hg4 mi
12:30 pm102 °FPassing clouds.6 mph16%29.83 "Hg4 mi
11:30 am102 °FPassing clouds.12 mph16%29.86 "Hg4 mi
11:00 am100 °FPassing clouds.12 mph17%29.86 "Hg4 mi
10:30 am99 °FPassing clouds.12 mph18%29.86 "Hg4 mi
10:00 am99 °FPassing clouds.13 mph18%29.86 "Hg4 mi
9:30 am97 °FPassing clouds.16 mph19%29.86 "Hg4 mi
8:30 am93 °FScattered clouds.10 mph24%29.86 "Hg4 mi
8:00 am90 °FBroken clouds.9 mph27%29.86 "Hg4 mi
Weather by CustomWeather, © 2017

See weather overviewHow to use our weather pages